Home   Weather   Chelyabinsk   Past weeks

Flag for Russia Past Weather in Chelyabinsk, Russia — Yesterday and Last 2 Weeks

Now
19 °F

Passing clouds.


Feels Like: 8 °F
Forecast: -8 / 7 °F
Wind: 10 mph from West

Location: Chelyabinsk-Balandino

Current Time: Dec 11, 2016 at 4:55:21 pm

Latest Report: Dec 11, 2016 at 4:30 pm


Visibility: N/A

Pressure: 29.18 "Hg

Humidity: 68%

Dew Point: 10 °F

Location of ChelyabinskLocation

Past Weather in Chelyabinsk — Graph

°F

Chelyabinsk Temperature Yesterday

Maximum temperature yesterday: 27 °F (at 7:30 pm)
Minimum temperature yesterday: -2 °F (at 4:00 am)
Average temperature yesterday: 12 °F

High & Low Weather Summary for the Past Weeks

 TemperatureHumidityPressure
High41 °F (Nov 29, 7:00 am)93% (Nov 26, 11:00 pm)30.33 "Hg (Nov 26, 11:00 pm)
Low-8 °F (Dec 6, 7:00 am)54% (Dec 1, 1:00 am)29.06 "Hg (Dec 11, 5:30 am)
Average15 °F78%29.70 "Hg
* Reported Nov 26 3:00 pm — Dec 11 3:30 pm, Chelyabinsk, Weather by CustomWeather, © 2016

Note: Actual official high and low records may vary slightly from our data, if they occured in-between our weather recording intervals... More about our weather records

Advertising

Chelyabinsk Weather History for the Previous 24 Hours

Scroll right to see more
 ConditionsComfort  
Time TempWeatherWind HumidityBarometerVisibility
3:30 pm
Sun, Dec 11
21 °FPassing clouds.8 mph68%29.15 "HgN/A
3:00 pm21 °FPassing clouds.10 mph68%29.12 "HgN/A
2:30 pm21 °FPassing clouds.10 mph74%29.12 "HgN/A
2:00 pm19 °FPassing clouds.10 mph79%29.12 "HgN/A
1:30 pm19 °FPassing clouds.8 mph79%29.09 "HgN/A
1:00 pm18 °FScattered clouds.6 mph79%29.09 "HgN/A
12:30 pm21 °FScattered clouds.6 mph86%29.09 "HgN/A
12:00 pm21 °FLight snow. Partly sunny.6 mph86%29.09 "Hg4 mi
11:30 am21 °FLight snow. Partly sunny.6 mph93%29.09 "Hg2 mi
11:00 am21 °FCold.3 mph93%29.09 "Hg1 mi
10:30 am23 °FLight snow. Partly sunny.6 mph80%29.09 "Hg1 mi
10:00 am21 °FSnow. Passing clouds.6 mph93%29.09 "Hg1 mi
9:30 am21 °FLight snow. Passing clouds.6 mph93%29.09 "Hg1 mi
9:00 am23 °FLight snow. Low clouds.6 mph86%29.09 "Hg1 mi
8:30 am23 °FLight snow. Low clouds.6 mph86%29.09 "Hg2 mi
8:00 am23 °FCold.10 mph86%29.09 "Hg1 mi
7:30 am23 °FCold.10 mph93%29.09 "Hg1 mi
7:00 am25 °FLight snow. Mostly cloudy.13 mph86%29.09 "Hg1 mi
6:30 am27 °FSnow. Mostly cloudy.15 mph80%29.06 "Hg1 mi
6:00 am27 °FSleet. Overcast.8 mph86%29.09 "Hg1 mi
5:30 am27 °FSnow. Ice fog.8 mph86%29.06 "Hg1 mi
5:00 am27 °FLight snow. Passing clouds.10 mph86%29.09 "Hg2 mi
4:30 am27 °FLight snow. Passing clouds.8 mph86%29.09 "Hg4 mi
4:00 am27 °FLight snow. Passing clouds.8 mph86%29.09 "HgN/A
3:30 am27 °FLight snow. Passing clouds.10 mph86%29.09 "Hg4 mi
3:00 am27 °FLight snow. Passing clouds.8 mph86%29.09 "Hg3 mi
2:30 am27 °FLight snow. Passing clouds.13 mph93%29.09 "Hg3 mi
2:00 am27 °FLight snow. Low clouds.13 mph93%29.09 "Hg1 mi
1:30 am27 °FLight snow. Low clouds.10 mph93%29.09 "Hg1 mi
1:00 am27 °FSnow. Ice fog.13 mph93%29.12 "Hg1 mi
12:30 am27 °FSnow. Ice fog.10 mph93%29.12 "Hg1 mi
12:00 am27 °FLight snow. Passing clouds.13 mph86%29.12 "Hg3 mi
11:30 pm
Sat, Dec 10
27 °FLight snow. Passing clouds.13 mph86%29.12 "Hg4 mi
11:00 pm27 °FLight snow. Passing clouds.15 mph86%29.15 "Hg2 mi
10:30 pm27 °FLight snow. Passing clouds.15 mph86%29.15 "Hg4 mi
10:00 pm27 °FLight snow. Passing clouds.17 mph86%29.15 "Hg3 mi
9:30 pm27 °FLight snow. Passing clouds.20 mph86%29.18 "Hg2 mi
9:00 pm27 °FLight snow. Passing clouds.13 mph86%29.18 "Hg2 mi
8:30 pm27 °FLight snow. Passing clouds.17 mph86%29.21 "Hg3 mi
8:00 pm27 °FLight snow. Passing clouds.15 mph86%29.21 "Hg3 mi
7:30 pm27 °FLight snow. Passing clouds.17 mph86%29.24 "Hg3 mi
7:00 pm25 °FLight snow. Passing clouds.13 mph86%29.24 "Hg3 mi
6:30 pm23 °FLight snow. Passing clouds.6 mph86%29.27 "Hg3 mi
6:00 pm21 °FLight snow. Passing clouds.8 mph93%29.27 "Hg3 mi
5:30 pm21 °FLight snow. Passing clouds.10 mph86%29.30 "Hg4 mi
5:00 pm21 °FLight snow. Scattered clouds.10 mph86%29.30 "Hg4 mi
4:30 pm19 °FScattered clouds.10 mph86%29.33 "HgN/A
4:00 pm19 °FScattered clouds.10 mph79%29.33 "HgN/A
Weather by CustomWeather, © 2016

See weather overviewHow to use our weather pages